Cleveland, OH

9:41 AM EST on February 23, 2017 (GMT -0500)
Burke Lakefront

Weather History for KBKL - January, 1999

Change the Weather History Date:

Saturday, January 2, 1999

  Actual Average Record
Temperature  
Mean Temperature 22 °F -  
Max Temperature 33 °F 36 °F 63 °F (2005)
Min Temperature 12 °F 25 °F 8 °F (2001)
Degree Days  
Heating Degree Days 42    
Moisture  
Dew Point 15 °F    
Average Humidity 79    
Maximum Humidity 93    
Minimum Humidity 56    
Precipitation  
Precipitation 0.34 in - - ()
Sea Level Pressure  
Sea Level Pressure 30.03 in    
Wind  
Wind Speed 12 mph (East)    
Max Wind Speed 18 mph    
Max Gust Speed 26 mph    
Visibility 4 miles    
Events Fog , Rain , Snow    
Averages and records for this station are not official NWS values.
T = Trace of Precipitation, MM = Missing Value Source: NWS Daily Summary

Daily Weather History Graph

Daily Weather History Graph

Search for Another Location

Airport or City:

Trip Planner

Search our weather history database for the weather conditions in past years. The results will help you decide how hot, cold, wet, or windy it might be!

Date:

Astronomy

Jan. 02, 1999 Rise Set
Actual Time 7:53 AM EST 5:08 PM EST
Civil Twilight 7:22 AM EST 5:39 PM EST
Nautical Twilight 6:47 AM EST 6:14 PM EST
Astronomical Twilight 6:13 AM EST 6:47 PM EST
Moon 6:06 PM EST (1/2) 8:05 AM EST (1/2)
Length of Visible Light 10h 17m
Length of Day
9h 14m
Full, 100% of the Moon is Illuminated
Jan 2
Full
Jan 9
Last Quarter
Jan 17
New
Jan 24
First Quarter
Jan 31
Full

Hourly Weather History & Observations

Time (EST) Temp. Windchill Dew Point Humidity Pressure Visibility Wind Dir Wind Speed Gust Speed Precip Events Conditions
12:53 AM 12.9 °F -0.9 °F 5.0 °F 71% 30.56 in 10.0 mi East 11.5 mph - N/A   Overcast
1:53 AM 12.9 °F -0.2 °F 5.0 °F 71% 30.55 in 10.0 mi ESE 10.4 mph - N/A   Overcast
2:53 AM 14.0 °F 0.5 °F 5.0 °F 67% 30.53 in 10.0 mi East 11.5 mph - N/A   Overcast
3:53 AM 14.0 °F -0.8 °F 1.9 °F 59% 30.49 in 10.0 mi East 13.8 mph - N/A   Overcast
4:53 AM 14.0 °F 0.5 °F 1.9 °F 59% 30.47 in 10.0 mi ESE 11.5 mph - N/A   Overcast
5:53 AM 14.0 °F 0.5 °F 1.9 °F 59% 30.46 in 10.0 mi East 11.5 mph 16.1 mph N/A   Overcast
6:53 AM 14.0 °F -1.4 °F 1.0 °F 56% 30.45 in 10.0 mi East 15.0 mph 21.9 mph N/A   Overcast
7:53 AM 15.1 °F 3.3 °F 1.9 °F 56% 30.46 in 10.0 mi East 9.2 mph - N/A   Overcast
8:53 AM 15.1 °F 2.5 °F 3.0 °F 59% 30.45 in 10.0 mi East 10.4 mph - N/A   Overcast
9:40 AM 15.8 °F 1.4 °F 3.2 °F 58% 30.38 in 3.0 mi East 13.8 mph - 0.00 in Snow Light Snow
9:53 AM 14.0 °F -3.0 °F 5.0 °F 67% 30.40 in 3.0 mi East 18.4 mph 24.2 mph 0.00 in Snow Light Snow
10:05 AM 14.0 °F -3.0 °F 6.8 °F 73% 30.36 in 1.5 mi ENE 18.4 mph 24.2 mph 0.00 in Snow Light Snow
10:53 AM 15.1 °F 0.5 °F 10.0 °F 80% 30.35 in 1.2 mi East 13.8 mph - 0.00 in Snow Light Snow
11:39 AM 15.8 °F -0.2 °F 10.4 °F 79% 30.25 in 2.0 mi East 17.3 mph 23.0 mph 0.00 in Snow Light Snow
11:46 AM 15.8 °F 1.4 °F 10.4 °F 79% 30.24 in 1.5 mi East 13.8 mph - 0.00 in Snow Light Snow
11:53 AM 15.1 °F -0.6 °F 10.0 °F 80% 30.26 in 1.5 mi East 16.1 mph 21.9 mph 0.00 in Snow Light Snow
12:06 PM 15.8 °F 0.3 °F 8.6 °F 73% 30.19 in 2.5 mi East 16.1 mph 26.5 mph 0.00 in Snow Light Snow
12:17 PM 15.8 °F 0.9 °F 10.4 °F 79% 30.16 in 3.0 mi East 15.0 mph 20.7 mph 0.00 in Snow Light Snow
12:42 PM 15.8 °F -0.2 °F 10.4 °F 79% 30.13 in 1.8 mi ESE 17.3 mph 23.0 mph 0.00 in Snow Light Snow
12:52 PM - - - N/A% 30.12 in 0.8 mi East 16.1 mph 20.7 mph N/A   Unknown
12:53 PM 16.0 °F 0.6 °F 12.0 °F 84% 30.15 in 0.8 mi East 16.1 mph 20.7 mph 0.00 in Snow Light Snow
1:05 PM 15.8 °F 0.9 °F 12.2 °F 86% 30.10 in 0.8 mi East 15.0 mph 19.6 mph 0.00 in Snow Light Snow
1:12 PM 15.8 °F 3.4 °F 12.2 °F 86% 30.10 in 1.0 mi ESE 10.4 mph 19.6 mph 0.00 in Snow Light Snow
1:19 PM 17.6 °F 5.0 °F 12.2 °F 79% 30.09 in 0.5 mi East 11.5 mph 20.7 mph 0.00 in Snow Snow
1:25 PM 15.8 °F 1.4 °F 12.2 °F 86% 30.08 in 0.2 mi East 13.8 mph - N/A Fog , Snow Heavy Snow
1:28 PM 15.8 °F 2.7 °F 12.2 °F 86% 30.07 in 0.2 mi East 11.5 mph - 0.01 in Fog , Snow Heavy Snow
1:53 PM 17.1 °F 2.5 °F 14.0 °F 88% 30.06 in 0.2 mi East 15.0 mph 20.7 mph 0.03 in Fog , Snow Snow
2:16 PM 17.6 °F 4.3 °F 14.0 °F 86% 29.98 in 0.5 mi East 12.7 mph - 0.01 in Fog , Snow Snow
2:21 PM 17.6 °F 5.0 °F 14.0 °F 86% 29.98 in 1.0 mi East 11.5 mph - 0.02 in Snow Light Snow
2:28 PM 17.6 °F 3.2 °F 14.0 °F 86% 29.97 in 3.0 mi East 15.0 mph - 0.02 in Snow Light Snow
2:43 PM 19.4 °F 5.0 °F 14.0 °F 80% 29.96 in 5.0 mi East 16.1 mph - 0.02 in Snow Light Snow
2:53 PM 19.0 °F 5.0 °F 14.0 °F 81% 29.97 in 4.0 mi East 15.0 mph 25.3 mph 0.03 in Snow Light Snow
3:07 PM 19.4 °F 6.6 °F 15.8 °F 86% 29.93 in 2.5 mi East 12.7 mph - 0.01 in Rain Light Freezing Rain
3:22 PM 19.4 °F 6.6 °F 15.8 °F 86% 29.91 in 3.0 mi East 12.7 mph - 0.02 in Rain Light Freezing Rain
3:53 PM 21.0 °F 9.3 °F 16.0 °F 81% 29.89 in 4.0 mi East 11.5 mph 20.7 mph 0.03 in Snow Light Snow
4:30 PM 21.2 °F 10.1 °F 17.6 °F 86% 29.83 in 5.0 mi East 10.4 mph 19.6 mph 0.01 in Snow Light Snow
4:53 PM 23.0 °F 13.1 °F 18.0 °F 81% 29.86 in 4.0 mi ESE 9.2 mph - 0.03 in Snow Light Snow
5:53 PM 25.0 °F 14.8 °F 19.0 °F 78% 29.87 in 10.0 mi East 10.4 mph - 0.01 in   Ice Pellets
6:21 PM 24.8 °F 16.1 °F 19.4 °F 80% 29.83 in 10.0 mi East 8.1 mph - 0.00 in Rain Light Freezing Rain
6:53 PM 25.0 °F 15.5 °F 19.9 °F 81% 29.83 in 5.0 mi ENE 9.2 mph - 0.01 in Rain Light Freezing Rain
6:56 PM 26.6 °F 18.2 °F 21.2 °F 80% 29.80 in 4.0 mi East 8.1 mph - 0.01 in Rain Light Freezing Rain
7:06 PM 26.6 °F 16.8 °F 21.2 °F 80% 29.78 in 6.0 mi ESE 10.4 mph - 0.01 in Rain Light Freezing Rain
7:36 PM 26.6 °F 19.1 °F 21.2 °F 80% 29.77 in 8.0 mi ENE 6.9 mph - 0.02 in Rain Light Freezing Rain
7:45 PM 26.6 °F 18.2 °F 21.2 °F 80% 29.76 in 7.0 mi ENE 8.1 mph - 0.02 in Rain Light Freezing Rain
7:53 PM 26.1 °F 17.6 °F 23.0 °F 88% 29.78 in 6.0 mi ENE 8.1 mph - 0.02 in Rain Light Freezing Rain
8:27 PM 28.4 °F 23.3 °F 24.8 °F 86% 29.74 in 4.0 mi Variable 4.6 mph - 0.03 in Rain Light Freezing Rain
8:39 PM 28.4 °F 22.2 °F 24.8 °F 86% 29.74 in 4.0 mi ESE 5.8 mph - 0.06 in Rain Light Freezing Rain
8:53 PM 28.0 °F 22.8 °F 24.1 °F 85% 29.76 in 4.0 mi ESE 4.6 mph - 0.08 in Rain Light Freezing Rain
9:23 PM 28.4 °F 20.4 °F 24.8 °F 86% 29.71 in 5.0 mi ESE 8.1 mph - 0.03 in Rain Light Freezing Rain
9:31 PM 28.4 °F 19.7 °F 26.6 °F 93% 29.70 in 4.0 mi ESE 9.2 mph - 0.04 in Rain Light Freezing Rain
9:33 PM 28.4 °F 19.7 °F 26.6 °F 93% 29.70 in 4.0 mi ESE 9.2 mph - 0.04 in Rain Light Freezing Rain
9:41 PM 28.4 °F 20.4 °F 26.6 °F 93% 29.69 in 4.0 mi ESE 8.1 mph - 0.04 in Rain Light Freezing Rain
9:53 PM 30.0 °F 21.7 °F 27.0 °F 88% 29.70 in 4.0 mi ESE 9.2 mph - 0.05 in Rain Light Freezing Rain
10:00 PM 30.2 °F 21.9 °F 26.6 °F 86% 29.67 in 5.0 mi ESE 9.2 mph - 0.00 in Rain Light Freezing Rain
10:53 PM 30.9 °F 21.7 °F 28.0 °F 89% 29.65 in 4.0 mi ESE 11.5 mph 20.7 mph 0.02 in Rain Light Freezing Rain
11:36 PM 33.8 °F 23.9 °F 30.2 °F 87% 29.60 in 6.0 mi SE 15.0 mph 18.4 mph 0.02 in Rain Light Rain
11:53 PM 33.1 °F 24.4 °F 30.9 °F 92% 29.61 in 5.0 mi SSE 11.5 mph 19.6 mph 0.03 in Rain Light Rain